Weather in Mobile

United States     30°41′39″N   88°02′34″W
temp.,
°C
wind,
m/s
gust,
m/s
humid.,
%
clouds,
%
prec.,
mm/h
press.,
hPa
HPBL,
m
25 may, wed
wed2501:00+24se51187100 0.7 1013675
04:00+23se41189100 4.7 1013409
07:00+24sse5119042 15.5 1013574
10:00+26se5876100 3.1 1015787
13:00+28sse686913 5.2 10151323
16:00+28s6966100 2.4 10141167
19:00+24sse4885100 4.7 1014562
22:00+24se51188100 0.1 1014724
26 may, thu
thu2601:00+24sse51189100 5.8 1014523
04:00+23s51187100 10.0 1013413
07:00+23ssw51287100 17.1 1014602
10:00+25sw498052 3.1 10151008
13:00+24sw368798 7.6 1014512
16:00+25nw13744 6.6 1013580
19:00+25sse34710 6.6 1013183
22:00+22s25850 0.1 1014144
27 may, fri
fri2701:00+22ssw26750 0.1 1013135
04:00+20w36710 0.0 1013154
07:00+20w28700 0.0 1014222
10:00+27wnw35440 0.0 1015821
13:00+30wnw48370 0.0 10142202
16:00+31wnw46332 0.0 10122556
19:00+27nw36472 0.0 1012544
22:00+21nnw24630 0.0 1014115
28 may, sat
sat2801:00+19n25750 0.0 1013127
04:00+17n24810 0.0 1013117
07:00+18nne24790 0.0 1015149
10:00+26nne23500 0.0 1015993
13:00+31n12340 0.0 10142019
16:00+32nne01310 0.0 10122379
19:00+27sse22490 0.0 1012756
22:00+24ssw25650 0.0 1013177
29 may, sun
sun2901:00+22w11710 0.0 101333
04:00+20ene11800 0.0 101331
07:00+21ne11750 0.0 101479
10:00+28se23470 0.0 1015960
13:00+31s34400 0.0 10151831
16:00+30s55440 0.0 10141458
19:00+27s46590 0.0 1014691
22:00+24se25750 0.0 1015322